Showing default

IRIDIUM 128, 42811

Orbit data source: Space-Track

IRIDIUM 128, 42811 is a payload satellite owned by Iridium (US) in LEO that was launched on Sun, 25 Jun 2017 UTC via an FALCON 9 launch vehicle from the Air Force Western Test Range (AFWTR). Payload-class satellites include a variety of spacecraft equipped with specific instruments for various scientific and technological missions. These include communications satellites like Starlink; space stations such as the ISS; scientific satellites like the Hubble; Earth observation satellites from companies like Planet Labs, Umbra, and HawkEye 360; GPS; miniature CubeSats for education and research; and military/defense satellites.

Loading next visibility...
Identifier
42811, 2017-039J
Orbit
LEO
Last TLE update
14 hours ago
Origin
Manufacturer
OATK SSG Gilbert
Mission
Operational Commercial Communications
Bus & Motor
ELITEBUS, Unknown motor
Mass
860 kg wet, 700 kg dry
Launch date (UTC)
2017-06-25 (8 years ago)
Launch vehicle
FALCON 9
Launch site
Air Force Western Test Range (AFWTR)
Object type
Payload
Rocket body
Debris
Shape & HBR
Trap Box + 2 Pan, 9.4 m
Radar Cross Section
14.423 m², Large (>1 m²)

Expand to show TLE details & history

TLE from 14 hours ago
0 IRIDIUM 128
1 42811U 17039J   25128.69128324  .00000223  00000-0  72520-4 0  9996
2 42811  86.4023 194.1778 0002686  99.8959 260.2540 14.34218087412003
Epoch: 2025-05-08T16:35Z
Definitive object data (Epoch: 2025-05-08T16:35:26.871Z)
Latitude
-0.00006°
Longitude
78.55769°
Altitude
781.043 km
Speed
7.463 km/s
True Right ascension
12h 56m 42s
True Declination
0° 00' 00"
Sunlit
Object was in full shadow at TLE epoch
Visualization TLE readout
Latitude
-27.44938°
Longitude
-99.83034°
Altitude
788.655 km
Speed
7.458 km/s
Apparent Right ascension
01h 56m 20s
Apparent Declination
-34° 05' 41"
Sunlit
Object is in daylight
Visualization observer readout
Local Sidereal Time
15:05:53
Azimuth
72.682° E
Elevation
-74.978°
Doppler factor
1
Orbital elements
Apogee altitude
776.552 km
Perigee altitude
772.709 km
Semi-major axis
7,152.767 km
Eccentricity
0.0002686
Inclination
86.4023°
RAAN
194.1778°
Arg. of periapsis
99.8959°
True anomaly
260.22367°
Mean anomaly
260.254°
Eccentric anomaly
260.23883°
Mean motion
3.58783 °/min
BSTAR
0.00007252
Orbital period
100.34 mins
Loading maneuver chart data...
Loading SW <> Apogee altitude chart data...
Loading historical data...
Loading historical data...
Loading historical data...
Loading historical data...
Loading historical data...
Loading historical data...
Loading historical data...

IRIDIUM 128 Visibility forecast

Observer location: undefined°, undefined°

Span
Click to sort rows by Start time (UTC) header in descending order
Start Az.
Max El. time (UTC)
Max El. Az.
Max El.
End time (UTC)
End Az.
9 mins2025-05-09 16:36:58.258Z352.729° N2025-05-09 16:40:58.258Z274.308° WNW44.034°2025-05-09 16:45:58.258Z185.533° SSW
6 mins2025-05-10 03:53:58.258Z122.448° SE2025-05-10 03:56:58.258Z74.331° E22.911°2025-05-10 03:59:58.258Z33.986° NE
7 mins2025-05-10 05:33:58.258Z224.823° SW2025-05-10 05:36:58.258Z276.6° WNW29.417°2025-05-10 05:40:58.258Z339.228° N
|